Location: La Junie
(44.7428°N, 2.1773°E)
Time: 05:00:33
(UTC+00:00)

Cosmos 1833 - Pass Details

Date: 15 May 2026
Orbit: 833 x 865 km, 70.9° (Epoch: 6 June)

Event Time Altitude Azimuth Distance (km) Brightness Sun altitude
Exits shadow 21:44:11 26° 197° (SSW) 1,610 5.3 -20.3°
Maximum altitude 21:47:30 79° 113° (ESE) 859 4.1 -20.6°
Drops below altitude 10° 21:53:08 10° 28° (NNE) 2,457 7.0 -21.1°
Sets 21:55:34 0° 27° (NNE) 3,392 7.8 -21.3°
